This demonstration page uses our WeatherBlox Daily Observations layout. Learn more.

40.92945, -100.16068

Hourly Observations for December 22, 2018

Temp ( °F °C ) Dew Point ( °F °C ) Humidity (%) Winds ( mph kmh ) Pressure ( in mb ) Visibility ( mi km ) Precip ( " mm )
12:15 am 00:15 Clear 32 -0.1 27 -2.7 83 83 WNW 9 15 29.91 1013 10 16.09344 0 0
12:35 am 00:35 Clear 30 -1 26 -3.2 85 85 W 9 15 29.91 1013 10 16.09344 0 0
12:55 am 00:55 Clear 31 -0.6 27 -2.9 85 85 W 8 13 29.91 1013 10 16.09344 0 0
1:15 am 01:15 Clear 30 -1 26 -3.1 86 86 W 8 13 29.91 1013 10 16.09344 0 0
1:35 am 01:35 Clear 29 -1.6 26 -3.6 86 86 W 8 13 29.94 1014 10 16.09344 0 0
1:55 am 01:55 Clear 28 -2.2 25 -3.8 89 89 WNW 9 15 29.94 1014 10 16.09344 0 0
2:15 am 02:15 Clear 29 -1.7 26 -3.5 88 88 WNW 8 13 29.94 1014 10 16.09344 0 0
2:35 am 02:35 Clear 28 -2 26 -3.5 90 90 WNW 8 13 29.97 1015 10 16.09344 0 0
2:55 am 02:55 Clear 29 -1.4 26 -3.2 88 88 WNW 9 15 29.97 1015 10 16.09344 0 0
3:15 am 03:15 Clear 28 -2 25 -3.7 88 88 W 6 9 29.97 1015 10 16.09344 0 0
3:35 am 03:35 Clear 28 -2.3 25 -3.9 89 89 W 8 13 30 1016 10 16.09344 0 0
3:55 am 03:55 Clear 28 -2 26 -3.6 89 89 WNW 8 13 29.97 1015 10 16.09344 0 0
4:15 am 04:15 Clear 29 -1.6 26 -3.2 89 89 WNW 6 9 29.97 1015 10 16.09344 0 0
4:35 am 04:35 Clear 30 -1.2 27 -3 88 88 W 7 11 30 1016 10 16.09344 0 0
4:55 am 04:55 Clear 30 -1.2 27 -3 88 88 W 8 13 30 1016 10 16.09344 0 0
5:15 am 05:15 Clear 31 -0.5 28 -2.4 87 87 W 7 11 30 1016 10 16.09344 0 0
5:35 am 05:35 Clear 31 -0.7 28 -2.5 88 88 WNW 7 11 30.03 1017 10 16.09344 0 0
5:55 am 05:55 Clear 32 -0.2 28 -2 88 88 WNW 8 13 30.03 1017 10 16.09344 0 0
6:15 am 06:15 Clear 33 0.3 29 -1.6 87 87 NW 10 17 30 1016 10 16.09344 0 0
6:35 am 06:35 Clear 33 0.5 28 -2 84 84 WNW 10 17 30.03 1017 10 16.09344 0 0
6:55 am 06:55 Clear 32 0 28 -2.5 83 83 WNW 9 15 30.06 1018 10 16.09344 0 0
7:15 am 07:15 Clear 31 -0.5 27 -2.7 85 85 WNW 8 13 30.06 1018 10 16.09344 0 0
7:35 am 07:35 Clear 31 -0.3 27 -2.8 83 83 WNW 8 13 30.06 1018 10 16.09344 0 0
7:55 am 07:55 Clear 31 -0.4 27 -3 83 83 WNW 8 13 30.06 1018 10 16.09344 0 0
8:15 am 08:15 Sunny 31 -0.8 26 -3.2 84 84 WNW 8 13 30.09 1019 10 16.09344 0 0
8:35 am 08:35 Sunny 31 -0.5 27 -3 83 83 WNW 8 13 30.09 1019 10 16.09344 0 0
8:55 am 08:55 Partly Cloudy 31 -0.3 27 -3 82 82 WNW 10 17 30.09 1019 10 16.09344 0 0
9:15 am 09:15 Partly Cloudy 32 0 27 -3 80 80 WNW 9 15 30.12 1020 10 16.09344 0 0
9:35 am 09:35 Partly Cloudy 32 0.1 28 -2.3 84 84 NW 9 15 30.12 1020 10 16.09344 0 0
9:55 am 09:55 Partly Cloudy 33 0.6 28 -2.1 82 82 NW 12 19 30.12 1020 10 16.09344 0 0
10:15 am 10:15 Mostly Cloudy 34 1.2 28 -2.1 79 79 WNW 12 19 30.12 1020 10 16.09344 0 0
10:35 am 10:35 Cloudy 35 1.7 28 -2 77 77 WNW 12 19 30.12 1020 10 16.09344 0 0
10:55 am 10:55 Cloudy 35 1.8 28 -2 76 76 WNW 15 24 30.12 1020 10 16.09344 0 0
11:15 am 11:15 Cloudy 36 2.3 29 -1.8 75 75 WNW 16 26 30.12 1020 10 16.09344 0 0
11:35 am 11:35 Cloudy 37 2.8 29 -1.7 73 73 NW 16 26 30.12 1020 10 16.09344 0 0
11:55 am 11:55 Cloudy 38 3.1 29 -1.7 71 71 NW 16 26 30.12 1020 10 16.09344 0 0
12:15 pm 12:15 Cloudy 38 3.4 27 -2.6 65 65 NW 16 26 30.12 1020 10 16.09344 0 0
12:35 pm 12:35 Cloudy 39 3.7 27 -3 62 62 NNW 16 26 30.12 1020 10 16.09344 0 0
12:55 pm 12:55 Mostly Cloudy 40 4.5 27 -2.7 60 60 NNW 15 24 30.09 1019 10 16.09344 0 0
1:15 pm 13:15 Partly Cloudy 40 4.5 26 -3.6 56 56 NNW 15 24 30.09 1019 10 16.09344 0 0
1:35 pm 13:35 Sunny 41 4.8 26 -3.6 55 55 NNW 13 20 30.09 1019 10 16.09344 0 0
1:55 pm 13:55 Mostly Cloudy 42 5.5 25 -3.8 52 52 NNW 16 26 30.09 1019 10 16.09344 0 0
2:15 pm 14:15 Cloudy 42 5.4 24 -4.3 50 50 NNW 13 20 30.09 1019 10 16.09344 0 0
2:35 pm 14:35 Cloudy 42 5.5 25 -4 51 51 NNW 12 19 30.09 1019 10 16.09344 0 0
2:55 pm 14:55 Cloudy 42 5.3 24 -4.2 51 51 NNW 9 15 30.09 1019 10 16.09344 0 0
3:15 pm 15:15 Cloudy 41 5.2 25 -3.9 52 52 NNW 7 11 30.09 1019 10 16.09344 0 0
3:35 pm 15:35 Cloudy 40 4.7 26 -3.5 56 56 NNW 7 11 30.09 1019 10 16.09344 0 0
3:55 pm 15:55 Cloudy 40 4.5 25 -3.7 56 56 WNW 9 15 30.09 1019 10 16.09344 0 0
4:15 pm 16:15 Cloudy 39 4.1 26 -3.3 59 59 WNW 8 13 30.15 1021 10 16.09344 0 0
4:35 pm 16:35 Cloudy 39 3.9 26 -3.3 60 60 WNW 9 15 30.15 1021 10 16.09344 0 0
4:55 pm 16:55 Cloudy 38 3.4 26 -3.1 63 63 WNW 8 13 30.18 1022 10 16.09344 0 0
5:15 pm 17:15 Cloudy 37 2.9 27 -2.8 66 66 WNW 8 13 30.18 1022 10 16.09344 0 0
5:35 pm 17:35 Cloudy 36 2.1 27 -3 69 69 WNW 7 11 30.18 1022 10 16.09344 0 0
5:55 pm 17:55 Cloudy 35 1.8 26 -3.2 70 70 W 6 9 30.18 1022 10 16.09344 0 0
6:15 pm 18:15 Cloudy 34 1 26 -3.5 72 72 W 5 7 30.21 1023 10 16.09344 0 0
6:35 pm 18:35 Cloudy 33 0.5 26 -3.6 74 74 W 3 6 30.21 1023 10 16.09344 0 0
6:55 pm 18:55 Partly Cloudy 32 -0.2 25 -4 76 76 W 6 9 30.21 1023 10 16.09344 0 0
7:15 pm 19:15 Partly Cloudy 30 -0.9 25 -3.9 80 80 W 7 11 30.24 1024 10 16.09344 0 0
7:35 pm 19:35 Clear 31 -0.5 25 -3.7 79 79 W 8 13 30.24 1024 10 16.09344 0 0
7:55 pm 19:55 Mostly Cloudy 32 0.1 27 -3 80 80 W 7 11 30.24 1024 10 16.09344 0 0
8:15 pm 20:15 Mostly Cloudy 31 -0.3 26 -3.5 79 79 W 10 17 30.24 1024 10 16.09344 0 0
8:35 pm 20:35 Mostly Cloudy 33 0.4 27 -3 78 78 WNW 10 17 30.27 1025 10 16.09344 0 0
8:55 pm 20:55 Partly Cloudy 32 -0.1 26 -3.5 78 78 WNW 10 17 30.27 1025 10 16.09344 0 0
9:15 pm 21:15 Clear 30 -1 24 -4.4 78 78 WNW 9 15 30.3 1026 10 16.09344 0 0
9:35 pm 21:35 Clear 28 -2 23 -4.9 81 81 WNW 8 13 30.3 1026 10 16.09344 0 0
9:55 pm 21:55 Clear 28 -2.3 23 -4.9 83 83 WNW 8 13 30.33 1027 10 16.09344 0 0
10:15 pm 22:15 Clear 28 -2.5 23 -5.1 83 83 WNW 9 15 30.33 1027 10 16.09344 0 0
10:35 pm 22:35 Clear 28 -2.5 23 -5.2 82 82 W 7 11 30.33 1027 10 16.09344 0 0
10:55 pm 22:55 Clear 26 -3.1 21 -6 81 81 W 8 13 30.33 1027 10 16.09344 0 0
11:15 pm 23:15 Clear 26 -3.3 20 -6.5 79 79 W 6 9 30.39 1029 10 16.09344 0 0
11:35 pm 23:35 Clear 25 -4 20 -6.6 82 82 W 5 7 30.39 1029 10 16.09344 0 0
11:55 pm 23:55 Clear 25 -4.1 20 -6.7 82 82 W 5 7 30.39 1029 10 16.09344 0 0

Powered by AerisWeather